Location: Wald
(31.7579°N, 86.6655°W)
Time: 12:28:41
(UTC+00:00)

Lacrosse 5 - Pass Details

Date: 14 July 2020
Orbit: 717 x 720 km, 57.0° (Epoch: 04 August)

Event Time Altitude Azimuth Distance (km) Brightness Sun altitude
Exits shadow 05:08:06 18° 32° (NNE) 1,716 4.2 -35.6°
Drops below altitude 10° 05:09:23 10° 34° (NE) 2,200 4.8 -35.6°
Sets 05:11:47 0° 36° (NE) 3,123 5.7 -35.8°
